EW2549 Weather Reports


time (UTC)temp
C
wind
direction
speed
KPH
gust
KPH
rain 1hr
cm
rain 24hr
cm
rain mn
cm
humidity
%
barometer
mb
20260506193057 7 128 0.0 0.0 0.30 0.69 0.51 57 1022.3
20260506191554 8 128 0.0 0.0 0.23 0.58 0.41 63 1022.4
20260506190050 6 71 0.0 0.0 0.15 0.48 0.30 76 1022.6
20260506184547 5 86 0.0 0.0 0.10 0.43 0.23 82 1022.8
20260506183058 2 86 0.0 0.0 0.10 0.41 0.20 88 1023.1
20260506181547 2 83 0.0 0.0 0.08 0.38 0.18 89 1023.1
20260506180040 2 45 0.0 0.0 0.08 0.36 0.15 90 1023.1
20260506174536 1 92 0.0 0.0 0.08 0.33 0.13 92 1023.0
20260506173031 0 324 0.0 0.0 0.05 0.30 0.10 92 1022.9
20260506163022 0 350 0.0 6.4 0.05 0.25 0.05 93 1021.8
20260506161523 0 319 0.0 11.3 0.03 0.23 0.03 94 1021.6
20260506160117 0 307 0.0 8.0 0.03 0.23 0.03 94 1021.6
20260506154517 0 346 0.0 8.0 0.00 0.20 0.00 94 1021.4
20260506153015 0 317 0.0 11.3 0.00 0.20 0.00 94 1021.4
20260506151520 0 327 0.0 12.9 0.00 0.20 0.00 94 1021.2
20260506150024 0 321 0.0 4.8 0.00 0.20 0.00 94 1021.1
20260506144512 0 304 0.0 0.0 0.00 0.23 0.00 94 1021.0
20260506143033 0 355 0.0 0.0 0.00 0.23 0.00 94 1020.9
20260506141510 0 346 0.0 0.0 0.00 0.23 0.00 94 1020.7
20260506140010 0 346 0.0 0.0 0.00 0.23 0.00 94 1020.7
20260506134506 0 346 0.0 0.0 0.00 0.25 0.00 94 1020.6
20260506133006 0 346 0.0 0.0 0.00 0.25 0.00 94 1020.4
20260506131502 0 346 0.0 0.0 0.00 0.25 0.00 94 1020.1
20260506130138 -1 346 0.0 0.0 0.00 0.25 0.00 94 1019.8
20260506124558 -1 346 0.0 0.0 0.00 0.28 0.00 94 1019.3
20260506123057 -1 346 0.0 0.0 0.00 0.28 0.00 94 1019.1
20260506121557 -1 346 0.0 0.0 0.00 0.28 0.00 94 1019.2
20260506120059 -1 346 0.0 0.0 0.00 0.28 0.00 94 1019.1
20260506114553 -1 347 0.0 0.0 0.00 0.38 0.00 94 1018.8
20260506113101 -1 346 0.0 0.0 0.00 0.38 0.00 94 1018.7
20260506111553 -1 346 0.0 0.0 0.00 0.38 0.00 94 1018.6
20260506110059 -1 346 0.0 0.0 0.00 0.38 0.00 94 1018.2
20260506104600 -1 346 0.0 0.0 0.00 0.43 0.00 94 1018.3
20260506103049 -1 346 0.0 0.0 0.00 0.43 0.00 94 1018.1
20260506101555 -1 346 0.0 0.0 0.00 0.43 0.00 94 1018.4
20260506100048 -1 346 0.0 0.0 0.00 0.43 0.00 94 1018.4
20260506093047 -1 346 0.0 0.0 0.00 0.46 0.00 94 1018.0